Change the Weather History Date:

Sunday, March 31, 2013

  Actual Average Record
Temperature  
Mean Temperature 43 °F 42 °F  
Max Temperature 66 °F 56 °F 85 °F (2012)
Min Temperature 20 °F 28 °F 14 °F (2007)
Degree Days  
Heating Degree Days 22 23  
Month to date heating degree days 852 840  
Since 1 July heating degree days 5465 5684  
Cooling Degree Days 0 0  
Month to date cooling degree days 0 0  
Year to date cooling degree days 0 0  
Moisture  
Dew Point 23 °F    
Average Humidity 58    
Maximum Humidity 100    
Minimum Humidity 16    
Precipitation  
Precipitation 0.00 in 0.04 in 0.02 in (2011)
Month to date precipitation 0.15 0.75  
Year to date precipitation 0.54 1.35  
Sea Level Pressure  
Sea Level Pressure 30.04 in    
Wind  
Wind Speed 10 mph (North)    
Max Wind Speed 35 mph    
Max Gust Speed 40 mph    
Visibility 10 miles    
Events      
T = Trace of Precipitation, MM = Missing Value Source: NWS Daily Summary

Daily Weather History Graph

Daily Weather History Graph

Search for Another Location

Airport or City:

Trip Planner

Search our weather history database for the weather conditions in past years. The results will help you decide how hot, cold, wet, or windy it might be!

Date:

Astronomy

Mar. 31, 2013 Rise Set
Actual Time 6:40 AM MDT 7:21 PM MDT
Civil Twilight 6:12 AM MDT 7:49 PM MDT
Nautical Twilight 5:38 AM MDT 8:23 PM MDT
Astronomical Twilight 5:04 AM MDT 8:57 PM MDT
Moon No Moon Rise 9:26 AM MDT (3/31)
Length of Visible Light 13h 37m
Length of Day
12h 41m
Waning Gibbous, 77% of the Moon is Illuminated
Mar 31
Waning Gibbous
Apr 2
Last Quarter
Apr 10
New
Apr 18
First Quarter
Apr 25
Full

Hourly Weather History & Observations

Time (MDT) Temp. Windchill Dew Point Humidity Pressure Visibility Wind Dir Wind Speed Gust Speed Precip Events Conditions
12:53 AM 30.9 °F 26.2 °F 28.0 °F 89% 30.18 in 10.0 mi NNW 4.6 mph - N/A   Clear
1:53 AM 30.9 °F 26.2 °F 28.0 °F 89% 30.17 in 10.0 mi SW 4.6 mph - N/A   Clear
2:53 AM 28.0 °F - 26.1 °F 92% 30.14 in 10.0 mi Calm Calm - N/A   Clear
3:53 AM 25.0 °F - 24.1 °F 96% 30.12 in 10.0 mi Calm Calm - N/A   Clear
4:53 AM 23.0 °F - 21.0 °F 92% 30.11 in 10.0 mi Calm Calm - N/A   Clear
5:53 AM 21.0 °F 14.6 °F 19.9 °F 96% 30.09 in 10.0 mi ENE 4.6 mph - N/A   Clear
6:53 AM 21.9 °F 15.7 °F 19.9 °F 92% 30.08 in 10.0 mi West 4.6 mph - N/A   Clear
7:53 AM 27.0 °F 23.0 °F 24.1 °F 89% 30.08 in 10.0 mi ENE 3.5 mph - N/A   Clear
8:53 AM 34.0 °F 31.0 °F 27.0 °F 75% 30.06 in 10.0 mi SSE 3.5 mph - N/A   Clear
9:53 AM 42.1 °F - 27.0 °F 55% 30.02 in 10.0 mi Calm Calm - N/A   Clear
10:53 AM 52.0 °F - 26.1 °F 37% 29.99 in 10.0 mi WNW 3.5 mph - N/A   Clear
11:53 AM 61.0 °F - 21.9 °F 22% 29.96 in 10.0 mi West 16.1 mph 23.0 mph N/A   Clear
12:53 PM 64.0 °F - 17.1 °F 16% 29.94 in 10.0 mi NW 19.6 mph 25.3 mph N/A   Clear
1:53 PM 63.0 °F - 19.0 °F 18% 29.93 in 10.0 mi NW 19.6 mph 29.9 mph N/A   Clear
2:53 PM 64.9 °F - 19.0 °F 17% 29.91 in 10.0 mi NNW 16.1 mph 27.6 mph N/A   Clear
3:53 PM 64.0 °F - 21.0 °F 19% 29.92 in 10.0 mi NW 20.7 mph 35.7 mph N/A   Clear
4:53 PM 64.0 °F - 21.0 °F 19% 29.92 in 10.0 mi NNW 17.3 mph 31.1 mph N/A   Clear
5:53 PM 61.0 °F - 21.0 °F 21% 29.95 in 10.0 mi North 16.1 mph 29.9 mph N/A   Mostly Cloudy
6:53 PM 57.0 °F - 23.0 °F 27% 29.98 in 10.0 mi North 33.4 mph 39.1 mph N/A   Partly Cloudy
7:53 PM 46.0 °F 39.3 °F 27.0 °F 47% 30.05 in 10.0 mi NE 16.1 mph - N/A   Clear
9:53 PM 41.0 °F 35.2 °F 24.1 °F 51% 30.12 in 10.0 mi ENE 9.2 mph - N/A   Clear
10:53 PM 37.9 °F 31.5 °F 21.0 °F 51% 30.14 in 10.0 mi East 9.2 mph - N/A   Clear
11:53 PM 34.0 °F 26.6 °F 17.1 °F 50% 30.14 in 10.0 mi East 9.2 mph - N/A   Clear